Flag for U.S.A. Weather past 2 weeks in Brownsville, Texas, U.S.A.

Now
76 °F

Sunny.


Feels Like: 78 °F
Forecast: 53 / 77 °F
Wind: 15 mph from South

Location: Brownsville / South Padre Island International Airport

Current Time: Jan 28, 2015 at 2:35:04 PM

Latest Report: Jan 28, 2015 at 1:53 PM


Visibility: 10 mi

Pressure: 30.15 "Hg

Humidity: 58%

Dew point: 60 °F

Location of BrownsvilleLocation

Historic Weather in Brownsville — Graph

°F

Brownsville temperature yesterday

Maximum temperature yesterday: 79 °F (at 2:53 PM)
Minimum temperature yesterday: 49 °F (at 6:53 AM)
Average temperature yesterday: 63 °F

Past Weeks' High & Low Weather Summary

 TemperatureHumidityPressure
High81 °F (Jan 20, 2:53 PM)100% (Jan 19, 2:53 AM)30.40 "Hg (Jan 19, 2:53 AM)
Low39 °F (Jan 24, 3:53 AM)17% (Jan 26, 2:53 PM)29.87 "Hg (Jan 22, 4:53 AM)
Average57 °F79%30.16 "Hg
* Reported Jan 13 12:53 PM — Jan 28 12:53 PM, Brownsville, Weather by CustomWeather, © 2014

Note: Actual official high and low records may vary slightly from our data, if they occured in-between our weather recording intervals... More about our weather records

Advertising

Brownsville weather history for previous 24 hours

 ConditionsComfort  
Time TempWeatherWind HumidityBarometerVisibility
12:53 PM
Jan 28
77 °FSunny.14 mph56%30.17 "Hg10 mi
11:53 AM75 °FSunny.16 mph62%30.18 "Hg10 mi
10:53 AM72 °FSunny.16 mph71%30.20 "Hg10 mi
9:53 AM67 °FSunny.10 mph87%30.20 "Hg10 mi
8:53 AM59 °FFog.3 mph100%30.19 "Hg0 mi
7:53 AM55 °FFog.3 mph96%30.17 "Hg0 mi
6:53 AM53 °FFog.5 mph100%30.16 "Hg0 mi
5:53 AM51 °FFog.3 mph96%30.15 "Hg0 mi
4:53 AM52 °FFog.No wind97%30.14 "Hg1 mi
4:02 AM52 °FFog.3 mph97%30.15 "Hg1 mi
3:53 AM52 °FFog.5 mph100%30.14 "Hg0 mi
2:53 AM53 °FFog.3 mph96%30.15 "Hg0 mi
1:53 AM55 °FFog.No wind93%30.17 "Hg0 mi
12:56 AM54 °FFog.3 mph97%30.17 "Hg3 mi
11:53 PM
Jan 27
55 °FClear.5 mph93%30.18 "Hg8 mi
10:53 PM56 °FCool.5 mph90%30.18 "Hg10 mi
9:53 PM55 °FClear.6 mph90%30.18 "Hg10 mi
8:53 PM56 °FClear.7 mph87%30.17 "Hg10 mi
7:53 PM59 °FClear.6 mph81%30.17 "Hg10 mi
6:53 PM64 °FClear.8 mph54%30.16 "Hg10 mi
5:53 PM70 °FSunny.9 mph39%30.15 "Hg10 mi
4:53 PM78 °FSunny.8 mph28%30.14 "Hg10 mi
3:53 PM79 °FSunny.3 mph22%30.15 "Hg10 mi
2:53 PM79 °FSunny.7 mph23%30.16 "Hg10 mi
Weather by CustomWeather, © 2014

See weather overviewHow to use our weather pages